Location: Oriwa
(40.7500°S, 175.3333°E)
Time: 11:56:46
(UTC+00:00)

Cosmos 2297 - Pass Details

Date: 03 February 2023
Orbit: 835 x 858 km, 71.0° (Epoch: 30 March)

Event Time Altitude Azimuth Distance (km) Brightness Sun altitude
Exits shadow 13:24:42 51° 212° (SSW) 1,058 4.3 -31.5°
Drops below altitude 10° 13:29:32 10° 165° (SSE) 2,483 7.0 -31.2°
Sets 13:32:03 0° 160° (SSE) 3,423 8.0 -31.1°
